STARLINK-32369

Last updated on Tue Oct 01 2024 00:02:04 GMT+0000 (Coordinated Universal Time)

1 60917U 24154Q 24274.24893331 .00002584 00000+0 74550-4 0 9994 2 60917 53.1631 205.4511 0001737 131.6519 228.4635 15.39624911 5877
UTC large
Height (km)
Speed (km/s)
/
Latitude / Longitude
Inclination (degrees)
Orbital Period (minutes)
Azimuth
Elevation
Range (km)
Doppler Factor

Next 0 passes for location: London (51.5072 / 0.1276)

Sorry there are no passes over London.